EW1095 Weather Reports


Display with metric or nautical units.
time (UTC)temp
F
wind
direction
speed
MPH
gust
MPH
rain 1hr
in
rain 24hr
in
rain mn
in
humidity
%
barometer
mb
20260906213042 85 0 0.0 0.0 0.00 0.04 0.00 37 1018.7
20260906212518 85 0 0.0 0.0 0.00 0.04 0.00 38 1018.7
20260906212020 85 0 0.0 0.0 0.00 0.04 0.00 40 1018.8
20260906211541 85 0 0.0 0.0 0.00 0.04 0.00 38 1018.8
20260906211021 85 0 0.0 0.0 0.00 0.04 0.00 36 1018.8
20260906210520 85 0 0.0 1.0 0.00 0.04 0.00 38 1018.9
20260906210036 85 0 0.0 1.0 0.00 0.04 0.00 36 1019.1
20260906205519 85 0 0.0 0.0 0.00 0.04 0.00 37 1019.1
20260906205020 85 0 0.0 0.0 0.00 0.04 0.00 37 1019.2
20260906204556 85 0 0.0 0.0 0.00 0.04 0.00 38 1019.2
20260906204018 84 0 0.0 0.0 0.00 0.04 0.00 38 1019.2
20260906203518 84 0 0.0 9.0 0.00 0.04 0.00 39 1019.5
20260906203041 84 0 0.0 9.0 0.00 0.04 0.00 39 1019.5
20260906202516 84 132 1.0 9.0 0.00 0.04 0.00 38 1019.6
20260906202019 84 0 0.0 0.0 0.00 0.04 0.00 39 1019.6
20260906201548 85 0 0.0 0.0 0.00 0.04 0.00 39 1019.6
20260906201018 85 0 0.0 0.0 0.00 0.04 0.00 40 1019.7
20260906200520 84 0 0.0 0.0 0.00 0.04 0.00 38 1019.7
20260906200037 84 0 0.0 0.0 0.00 0.04 0.00 38 1019.7
20260906195520 84 0 0.0 0.0 0.00 0.04 0.00 38 1019.7
20260906195018 84 0 0.0 5.0 0.00 0.04 0.00 39 1019.7
20260906194539 84 0 0.0 5.0 0.00 0.04 0.00 39 1019.7
20260906194019 84 0 0.0 1.0 0.00 0.04 0.00 39 1020.0
20260906193518 84 0 0.0 1.0 0.00 0.04 0.00 41 1019.9
20260906193039 83 0 0.0 1.0 0.00 0.04 0.00 42 1020.0
20260906192521 83 0 0.0 1.0 0.00 0.04 0.00 42 1019.9
20260906192019 83 0 0.0 1.0 0.00 0.04 0.00 41 1020.0
20260906191539 83 0 0.0 0.0 0.00 0.04 0.00 41 1020.2
20260906191018 83 0 0.0 0.0 0.00 0.04 0.00 41 1020.2
20260906190520 83 0 0.0 1.0 0.00 0.04 0.00 41 1020.3
20260906190042 82 0 0.0 7.0 0.00 0.04 0.00 42 1020.4
20260906185519 82 0 0.0 7.0 0.00 0.04 0.00 43 1020.7
20260906185037 81 0 0.0 1.0 0.00 0.04 0.00 44 1020.6
20260906184537 81 0 0.0 1.0 0.00 0.04 0.00 42 1020.8
20260906184016 80 0 0.0 1.0 0.00 0.04 0.00 44 1020.8
20260906183518 80 0 0.0 6.0 0.00 0.04 0.00 46 1021.0
20260906183038 80 0 0.0 7.0 0.00 0.04 0.00 46 1021.2
20260906182519 80 0 2.0 7.0 0.00 0.04 0.00 44 1021.3
20260906182021 80 0 0.0 1.0 0.00 0.04 0.00 43 1021.5
20260906181538 79 0 0.0 1.0 0.00 0.04 0.00 47 1021.5
20260906181019 79 0 0.0 1.0 0.00 0.04 0.00 44 1021.5
20260906180520 80 0 0.0 1.0 0.00 0.04 0.00 41 1021.7
20260906180055 80 0 0.0 1.0 0.00 0.04 0.00 42 1021.7
20260906175520 80 0 0.0 1.0 0.00 0.04 0.00 45 1021.9
20260906175018 79 0 0.0 1.0 0.00 0.04 0.00 44 1021.9
20260906174539 79 0 0.0 1.0 0.00 0.04 0.00 46 1022.1
20260906174018 78 0 0.0 0.0 0.00 0.04 0.00 45 1022.1
20260906173518 78 0 0.0 0.0 0.00 0.04 0.00 48 1022.0
20260906173039 78 0 0.0 0.0 0.00 0.04 0.00 47 1022.1
20260906172519 77 0 0.0 0.0 0.00 0.04 0.00 48 1022.2
20260906172020 77 0 0.0 0.0 0.00 0.04 0.00 48 1022.3
20260906171537 77 0 0.0 0.0 0.00 0.04 0.00 49 1022.3
20260906171018 76 0 0.0 0.0 0.00 0.04 0.00 49 1022.3
20260906170518 76 0 0.0 0.0 0.00 0.04 0.00 48 1022.3
20260906170043 76 0 0.0 0.0 0.00 0.04 0.00 52 1022.3
20260906165520 75 0 0.0 1.0 0.00 0.04 0.00 52 1022.3
20260906165019 75 0 0.0 1.0 0.00 0.04 0.00 52 1022.3
20260906164536 75 0 0.0 1.0 0.00 0.04 0.00 52 1022.4
20260906164018 75 0 0.0 0.0 0.00 0.04 0.00 54 1022.4
20260906163518 74 0 0.0 0.0 0.00 0.04 0.00 58 1022.3
20260906163043 74 0 0.0 0.0 0.00 0.04 0.00 58 1022.5
20260906162517 73 0 0.0 0.0 0.00 0.04 0.00 55 1022.5
20260906162020 73 0 0.0 0.0 0.00 0.04 0.00 58 1022.6
20260906161536 72 0 0.0 0.0 0.00 0.04 0.00 61 1022.6
20260906161019 72 0 0.0 0.0 0.00 0.04 0.00 61 1022.5
20260906160520 71 0 0.0 0.0 0.00 0.04 0.00 58 1022.5
20260906160039 71 0 0.0 0.0 0.00 0.04 0.00 62 1022.7
20260906155520 71 0 0.0 0.0 0.00 0.04 0.00 63 1022.5
20260906155020 71 0 0.0 0.0 0.00 0.04 0.00 63 1022.5
20260906154537 70 0 0.0 0.0 0.00 0.04 0.00 65 1022.7
20260906154016 70 0 0.0 0.0 0.00 0.04 0.00 69 1022.7
20260906153519 69 0 0.0 0.0 0.00 0.04 0.00 69 1022.8
20260906153037 69 0 0.0 0.0 0.00 0.04 0.00 69 1022.7
20260906152521 69 0 0.0 0.0 0.00 0.04 0.00 70 1022.7
20260906152018 69 0 0.0 0.0 0.00 0.04 0.00 72 1022.7
20260906151540 68 0 0.0 0.0 0.00 0.04 0.00 71 1022.7
20260906151019 68 0 0.0 0.0 0.00 0.04 0.00 72 1022.5
20260906150520 68 0 0.0 0.0 0.00 0.04 0.00 72 1022.6
20260906150037 67 0 0.0 0.0 0.00 0.04 0.00 73 1022.5
20260906145517 67 0 0.0 0.0 0.00 0.04 0.00 74 1022.4
20260906145018 67 0 0.0 0.0 0.00 0.04 0.00 73 1022.4
20260906144538 66 0 0.0 0.0 0.00 0.04 0.00 74 1022.4
20260906144015 66 0 0.0 0.0 0.00 0.04 0.00 75 1022.4
20260906143516 66 0 0.0 0.0 0.00 0.04 0.00 75 1022.4
20260906143038 65 0 0.0 0.0 0.00 0.04 0.00 76 1022.4
20260906142520 65 0 0.0 0.0 0.00 0.04 0.00 76 1022.5
20260906142020 64 0 0.0 0.0 0.00 0.04 0.00 75 1022.5
20260906141540 64 0 0.0 0.0 0.00 0.04 0.00 75 1022.5
20260906141020 64 0 0.0 0.0 0.00 0.04 0.00 75 1022.6
20260906140521 63 0 0.0 0.0 0.00 0.04 0.00 73 1022.6
20260906140035 63 0 0.0 0.0 0.00 0.04 0.00 73 1022.5
20260906135524 63 0 0.0 0.0 0.00 0.04 0.00 72 1022.3
20260906135016 63 0 0.0 0.0 0.00 0.04 0.00 72 1022.2
20260906134533 62 0 0.0 0.0 0.00 0.04 0.00 72 1022.1
20260906134021 62 0 0.0 0.0 0.00 0.04 0.00 72 1022.0
20260906133518 62 0 0.0 0.0 0.00 0.04 0.00 73 1022.1
20260906133036 61 0 0.0 0.0 0.00 0.04 0.00 73 1021.9
20260906132522 61 0 0.0 0.0 0.00 0.04 0.00 73 1021.8
20260906132019 61 0 0.0 0.0 0.00 0.04 0.00 73 1021.9
20260906131543 60 0 0.0 0.0 0.00 0.04 0.00 73 1021.8
20260906131020 60 0 0.0 0.0 0.00 0.04 0.00 73 1021.8
20260906130520 60 0 0.0 0.0 0.00 0.04 0.00 73 1021.9
20260906130038 60 0 0.0 0.0 0.00 0.04 0.00 73 1021.9
20260906125518 60 0 0.0 0.0 0.00 0.04 0.00 74 1021.9
20260906125017 60 0 0.0 0.0 0.00 0.04 0.00 73 1021.9
20260906124600 60 0 0.0 0.0 0.00 0.04 0.00 73 1021.9
20260906124420 60 0 0.0 0.0 0.00 0.04 0.00 73 1022.0
20260906031020 75 0 0.0 0.0 0.00 0.00 0.00 37 1020.9
20260906030519 76 0 0.0 0.0 0.00 0.00 0.00 36 1020.5
20260906030041 76 0 0.0 0.0 0.00 0.00 0.00 35 1020.4
20260906025519 76 0 0.0 0.0 0.00 0.00 0.00 36 1020.3
20260906025025 76 0 0.0 0.0 0.00 0.00 0.00 35 1020.2
20260906024539 76 0 0.0 0.0 0.00 0.00 0.00 35 1020.2
20260906024020 75 0 0.0 0.0 0.00 0.00 0.00 35 1020.2
20260906023520 75 0 0.0 1.0 0.00 0.00 0.00 37 1020.1
20260906023038 76 0 0.0 1.0 0.00 0.00 0.00 37 1020.1
20260906022521 76 0 0.0 0.0 0.00 0.00 0.00 35 1019.8
20260906022023 77 0 0.0 0.0 0.00 0.00 0.00 35 1019.7
20260906021536 77 0 0.0 0.0 0.00 0.00 0.00 34 1019.7
20260906021018 77 0 0.0 0.0 0.00 0.00 0.00 34 1019.6
20260906020518 78 0 0.0 0.0 0.00 0.00 0.00 34 1019.6
20260906020045 78 0 0.0 0.0 0.00 0.00 0.00 33 1019.6
20260906015518 78 0 0.0 0.0 0.00 0.00 0.00 33 1019.6
20260906015020 78 0 0.0 0.0 0.00 0.00 0.00 33 1019.6
20260906014551 79 0 0.0 0.0 0.00 0.00 0.00 33 1019.5
20260906014020 79 0 0.0 0.0 0.00 0.00 0.00 33 1019.5
20260906013519 80 0 0.0 0.0 0.00 0.00 0.00 33 1019.3
20260906013043 80 0 0.0 0.0 0.00 0.00 0.00 34 1019.3
20260906012520 81 0 0.0 0.0 0.00 0.00 0.00 33 1019.3
20260906012017 81 0 0.0 0.0 0.00 0.00 0.00 33 1019.3
20260906011542 82 0 0.0 0.0 0.00 0.00 0.00 32 1019.4
20260906011018 82 0 0.0 0.0 0.00 0.00 0.00 31 1019.4
20260906010520 83 0 0.0 0.0 0.00 0.00 0.00 31 1019.3
20260906010039 84 0 0.0 0.0 0.00 0.00 0.00 29 1019.3
20260906005520 84 0 0.0 0.0 0.00 0.00 0.00 29 1019.4
20260906005023 84 0 0.0 0.0 0.00 0.00 0.00 29 1019.4
20260906004541 85 0 0.0 0.0 0.00 0.00 0.00 29 1019.4
20260906004024 85 0 0.0 0.0 0.00 0.00 0.00 28 1019.4
20260906003520 86 0 0.0 0.0 0.00 0.00 0.00 27 1019.4
20260906003049 86 0 0.0 0.0 0.00 0.00 0.00 27 1019.4
20260906002520 87 0 0.0 0.0 0.00 0.00 0.00 27 1019.4
20260906002018 87 0 0.0 0.0 0.00 0.00 0.00 26 1019.3
20260906001536 88 0 0.0 0.0 0.00 0.00 0.00 25 1019.3
20260906001020 88 0 0.0 0.0 0.00 0.00 0.00 26 1019.2
20260906000523 89 0 0.0 0.0 0.00 0.00 0.00 25 1019.3
20260906000037 89 0 0.0 0.0 0.00 0.00 0.00 25 1019.3
20260905235520 90 0 0.0 0.0 0.00 0.00 0.00 24 1019.3
20260905235020 90 0 0.0 0.0 0.00 0.00 0.00 22 1019.2
20260905234539 90 0 0.0 0.0 0.00 0.00 0.00 25 1019.2
20260905234019 90 0 0.0 0.0 0.00 0.00 0.00 22 1019.3
20260905233518 90 0 0.0 0.0 0.00 0.00 0.00 23 1019.3
20260905233040 89 0 0.0 0.0 0.00 0.00 0.00 21 1019.2
20260905232521 89 0 0.0 0.0 0.00 0.00 0.00 21 1019.3
20260905232022 89 0 0.0 0.0 0.00 0.00 0.00 22 1019.2
20260905231539 89 0 0.0 0.0 0.00 0.00 0.00 23 1019.2
20260905231020 88 0 0.0 1.0 0.00 0.00 0.00 23 1019.2
20260905230520 88 0 0.0 1.0 0.00 0.00 0.00 23 1019.2
20260905230040 88 0 0.0 0.0 0.00 0.00 0.00 23 1019.2
20260905225517 87 0 0.0 0.0 0.00 0.00 0.00 26 1019.1
20260905225016 87 0 0.0 0.0 0.00 0.00 0.00 25 1019.1
20260905224537 86 0 0.0 0.0 0.00 0.00 0.00 26 1019.2
20260905224017 86 0 0.0 0.0 0.00 0.00 0.00 26 1019.3
20260905223519 86 0 0.0 0.0 0.00 0.00 0.00 25 1019.3
20260905223038 86 0 0.0 0.0 0.00 0.00 0.00 24 1019.3
20260905222523 86 0 0.0 2.0 0.00 0.00 0.00 24 1019.3
20260905222020 86 0 0.0 2.0 0.00 0.00 0.00 24 1019.3
20260905221540 86 0 0.0 2.0 0.00 0.00 0.00 24 1019.3
20260905221018 86 0 0.0 0.0 0.00 0.00 0.00 26 1019.3
20260905220519 87 0 0.0 0.0 0.00 0.00 0.00 22 1019.3
20260905220044 88 0 0.0 0.0 0.00 0.00 0.00 23 1019.2
20260905215519 89 0 0.0 7.0 0.00 0.00 0.00 22 1019.5
20260905215023 89 0 0.0 7.0 0.00 0.00 0.00 22 1019.6
20260905214537 88 0 0.0 1.0 0.00 0.00 0.00 22 1019.7
20260905214018 88 0 0.0 1.0 0.00 0.00 0.00 23 1019.7
20260905213520 88 0 0.0 1.0 0.00 0.00 0.00 26 1019.6